Regional Weather Roundup
Issued by NWS

Current Version | Previous Version | Text Only | Print | Product List | Glossary Off
Versions: 1 2 3 4 5 6 7 8 9 10 11 12 13 14 15 16 17 18 19 20 21 22 23 24 25 26 27 28 29 30 31 32 33 34 35 36 37 38 39 40 41 42 43 44 45 46 47 48 49 50

000
ASUS44 KMEG 282310
RWRTN
TENNESSEE HOURLY STATE WEATHER ROUNDUP
NATIONAL WEATHER SERVICE MEMPHIS TN
600 PM CDT TUE MAR 28 2017

TNZ002-004-019-021-049-052-054-088>092-290000-
WEST TENNESSEE

CITY           SKY/WX    TMP DP  RH WIND       PRES   REMARKS
MEMPHIS INTL   MOSUNNY   77  56  48 NE12      29.93S
NWS MEMPHIS      N/A     75 N/A N/A MISG        N/A
JACKSON        MOSUNNY   72  55  55 N6        29.98S
DYERSBURG      SUNNY     68  55  63 NE10      29.99S
SOMERVILLE     SUNNY     73  55  53 VRB6      29.95S
BOLIVAR        SUNNY     73  54  49 N6        29.95S
PARIS          SUNNY     63  52  67 E9        30.02R
HUNTINGDON     SUNNY     68  54  60 NE8       29.99S
SAVANNAH       MOSUNNY   73  55  53 NE5       29.95S
$$

TNZ008-025-027-028-033-062-065-066-290000-
NORTH MIDDLE TENNESSEE

CITY           SKY/WX    TMP DP  RH WIND       PRES   REMARKS
NASHVILLE      MOSUNNY   69  53  56 N12       30.01R
PORTLAND       CLOUDY    63  55  77 NE7       30.03R
CLARKSVILLE    CLOUDY    63  54  72 N14       30.03R
SMYRNA         MOSUNNY   69  53  56 N12       30.01S
COOKEVILLE     CLOUDY    66  52  59 CALM      30.01R
GALLATIN       CLOUDY    66  54  63 N7        30.05R
CROSSVILLE     CLOUDY    62  49  62 NW6       30.04R
$$

TNZ061-075-076-078-094-096-097-290000-
SOUTH MIDDLE TENNESSEE

CITY           SKY/WX    TMP DP  RH WIND       PRES   REMARKS
FAYETTEVILLE   SUNNY     70  55  60 NE6       29.99S
TULLAHOMA      SUNNY     66  50  55 CALM        N/A
WINCHESTER     SUNNY     70  54  56 N6        30.00S
MCMINNVILLE    CLOUDY    66  54  63 CALM      30.02R
COLUMBIA       SUNNY     73  54  49 CALM      29.97R
SHELBYVILLE    PTSUNNY   72  55  56 N6        30.00S
$$

TNZ017-018-042-046-047-290000-
NORTHEAST TENNESSEE

CITY           SKY/WX    TMP DP  RH WIND       PRES   REMARKS
TRI CITIES     CLOUDY    66  51  58 NW7       30.00R
ELIZABETHTON   CLOUDY    66  50  55 NW8       29.99R
$$

TNZ012-013-036-069-073-074-290000-
CENTRAL EAST TENNESSEE

CITY           SKY/WX    TMP DP  RH WIND       PRES   REMARKS
KNOXVILLE      MOSUNNY   72  50  45 W6        29.96S
OAK RIDGE      PTSUNNY   72  48  42 VRB7      29.98R
DOWNTOWN KNOXV CLOUDY    72  52  49 W6        29.97R
GATLINBURG     CLEAR     72  52  49 SW7       29.97R
MORRISTOWN     CLOUDY    68  52  56 NW5       29.98R
JACKSBORO      SUNNY     68  50  52 VRB5      30.02R
$$

TNZ083-085-099-290000-
SOUTHEAST TENNESSEE

CITY           SKY/WX    TMP DP  RH WIND       PRES   REMARKS
CHATTANOOGA    MOSUNNY   75  49  39 W8        29.96S
$$

SKY/WX REPORTED AS FAIR MEANS FEW OR NO CLOUDS BELOW
12 THOUSAND FEET.




USA.gov is the U.S. government's official web portal to all federal, state and local government web resources and services.